Regional Weather Roundup
Issued by NWS

Home | Current Version | Previous Version | Text Only | Print | Product List | Glossary Off
Versions: 1 2 3 4 5 6 7 8 9 10 11 12 13 14 15 16 17 18 19 20 21 22 23 24 25 26 27 28 29 30 31 32 33 34 35 36 37 38 39 40 41 42 43 44 45 46 47 48 49 50

000
ASUS43 KMKX 221000
RWRWI

WISCONSIN REGIONAL WEATHER ROUNDUP
NATIONAL WEATHER SERVICE MILWAUKEE/SULLIVAN WI
500 AM CDT SAT JUL 22 2017

NOTE: "FAIR" INDICATES FEW OR NO CLOUDS BELOW 12,000 FEET WITH NO
SIGNIFICANT WEATHER AND/OR OBSTRUCTIONS TO VISIBILITY.

WIZ001-002-006>008-014>016-023>028-221100-
NORTHWEST WISCONSIN

CITY           SKY/WX    TMP DP  RH WIND       PRES   REMARKS
SUPERIOR ARPT  NOT AVBL
ASHLAND        CLOUDY    62  61  96 W3        29.81F
HAYWARD        MOCLDY    64  62  93 N5        29.81F
SIREN          CLOUDY    63  62  97 CALM      29.82R
CUMBERLAND     CLOUDY    61  61 100 CALM      29.80S
RICE LAKE      CLOUDY    62  62  98 CALM      29.81S FOG
CHETEK         CLOUDY    63  63 100 MISG      29.79F
LADYSMITH      CLOUDY    65  64  96 CALM      29.83R
EAU CLAIRE     CLOUDY    66  64  93 CALM      29.77S
MENOMONIE      CLOUDY    66  65  98 CALM      29.81R
NEW RICHMOND   CLOUDY    64  64 100 CALM      29.80R
OSCEOLA        CLOUDY    66  66 100 N3        29.84R
$$

WIZ003>005-009-010-017-018-221100-
NORTH CENTRAL WISCONSIN

CITY           SKY/WX    TMP DP  RH WIND       PRES   REMARKS
MANITOWISH WTR CLOUDY    66  66 100 CALM      29.83S
ARBOR VITAE    CLOUDY    67  65  94 CALM      29.83R
WOODRUFF       CLOUDY    67  65  94 CALM      29.83R
RHINELANDER    CLOUDY    61  61 100 E3        29.84R
EAGLE RIVER    CLOUDY    65  58  79 CALM      29.83R
LAND O LAKES   CLOUDY    65  63  94 CALM      29.85F
PHILLIPS       CLOUDY    64  64 100 CALM      29.82R
TOMAHAWK         N/A     64  61  90 CALM      29.82S
MEDFORD        FOG       66  65  99 S3        29.81S VSB 1/2
MERRILL        CLOUDY    65  65 100 CALM      29.81F
$$

WIZ029-030-035-036-043>047-221100-
CENTRAL WISCONSIN

CITY           SKY/WX    TMP DP  RH WIND       PRES   REMARKS
WAUSAU         CLOUDY    66  65  96 SE7       29.79S
MOSINEE        CLOUDY    64  64 100 SE5       29.82R FOG
MARSHFIELD     FOG       67  65  93 S6        29.80R VSB 3/4
STEVENS POINT  CLOUDY    64  64 100 SE7       29.80F
WAUPACA        CLOUDY    68  65  92 CALM      29.80F
WAUTOMA        CLOUDY    65  64  97 NE5       29.80S
WISC RAPIDS    CLOUDY    66  66 100 VRB3      29.81R FOG
CAMP DOUGLAS   FOG       66  66 100 SE7       29.77S VSB 1
$$

WIZ011>013-019>022-031-037>040-048>050-221100-
NORTHEAST WISCONSIN

CITY           SKY/WX    TMP DP  RH WIND       PRES   REMARKS
ANTIGO         CLOUDY    63  62  96 SE3       29.82S
SHAWANO        CLOUDY    68  59  73 CALM      29.80F
OCONTO         CLOUDY    68  60  76 CALM      29.81F
STURGEON BAY     N/A     67  63  87 CALM      29.85R
GREEN BAY      CLOUDY    67  64  90 CALM      29.81R
MANITOWOC      NOT AVBL
APPLETON       CLOUDY    66  55  68 SE5       29.80S
CLINTONVILLE   CLOUDY    64  57  77 E3        29.80F
OSHKOSH        CLOUDY    67  61  81 CALM      29.79R
$$

WIZ032>034-041-042-053>061-221100-
SOUTHWEST WISCONSIN

CITY           SKY/WX    TMP DP  RH WIND       PRES   REMARKS
LA CROSSE      CLOUDY    73  70  90 S3        29.77R
SPARTA         CLOUDY    66  66  98 CALM      29.78S
VIROQUA        CLOUDY    68  68 100 SE3       29.80R VSB 1/4
BOSCOBEL       CLOUDY    71  69  93 SW3       29.78R FOG
PRAIRIE DU CHI CLOUDY    71  70  96 S3        29.79R
PLATTEVILLE    CLOUDY    70  70 100 S12       29.80F
$$

WIZ056-057-062-063-064-067-068-221100-
SOUTH CENTRAL WISCONSIN

CITY           SKY/WX    TMP DP  RH WIND       PRES   REMARKS
REEDSBURG      FOG       66  66 100 CALM      29.77F VSB 1/2
BARABOO/DELLS  FOG       65  64  96 SE5       29.78F VSB 1
LONE ROCK      CLOUDY    69  67  93 E5        29.78S FOG
MINERAL POINT  LGT RAIN  70  70 100 S10       29.80F VSB 1
MADISON        CLOUDY    67  66  97 SE7       29.78F FOG
MIDDLETON      CLOUDY    68  68 100 CALM      29.79F
WATERTOWN      CLOUDY    65  65 100 S3        29.79S
MONROE         DRIZZLE   68  66  94 S17       29.78F
JANESVILLE     CLOUDY    70  70 100 W12       29.83R
$$

WIZ051-052-058>065-066-070>072-221100-
SOUTHEAST WISCONSIN

CITY           SKY/WX    TMP DP  RH WIND       PRES   REMARKS
MILWAUKEE      CLOUDY    70  68  93 NW5       29.77F
WAUKESHA       CLOUDY    63  61  94 CALM      29.81F
MILWAUKEE/TIMM CLOUDY    64  61  88 CALM      29.79F
RACINE         CLOUDY    71  70  96 S3        29.79F FOG
KENOSHA        CLOUDY    71  69  93 W9        29.78R
FOND DU LAC    CLOUDY    67  60  78 CALM      29.79S
SHEBOYGAN      CLOUDY    66  65  96 NE3       29.78F
WEST BEND      CLOUDY    63  63 100 CALM      29.79S
JUNEAU         CLOUDY    65  62  93 CALM      29.80R
$$

LSZ147-162-221100-
LAKE SUPERIOR

STATION/POSITION TIME  TEMP    WIND        PRES    WAVE
                       AIR SEA DIR/SP/G            HT/PER
                 (UTC) (F)     (DEG/KT/KT) (MB)    (FT/S)
W MID LAKE BUOY  0850   51 48   30/ 10/ 12 1009.1R   1/ 3
DEVILS ISLAND    0900   59     110/  2/  3 1009.2R
SAXON HARBOR     0930   63     200/  3/  4 1009.1R
$$

LMZ867-665-643>646-221100-
LAKE MICHIGAN

STATION/POSITION TIME  TEMP    WIND        PRES    WAVE
                       AIR SEA DIR/SP/G            HT/PER
                 (UTC) (F)     (DEG/KT/KT) (MB)    (FT/S)
CHAMBERS ISLAND  0940   69      CALM  /  2 1009.5S
S GREEN BAY BUOY 0930   71 73  190/  8/ 12 1009.6F
N MID LAKE BUOY  0850   68 66  230/  4/  6 1011.4R   1/ 3
NORTHPORT PIER   0940   68     140/  1/  3 1010.2F
KEWAUNEE LAKESHO 0924   68     120/  2/  3 1008.7
SHEBOYGAN LAKESH 0900   67      80/  8/  9 1008.4F
PORT WASHINGTON  0930   68      20/  2/  3 1009.1F
ATWATER BUOY     0839   69 68   10/  8/ 10 1009.1F
MILWAUKEE LAKESH 0950   69     270/  3/  3   N/A
S MID LAKE BUOY  0750   72 70  150/ 12/ 16 1009.3F   2/ 4
KENOSHA   LAKESH 0900   72     300/  6/  8 1009.5
$$

TC  - TEMPERATURE IN CELSIUS
VSB - VISIBILITY IN STATUTE MILES
WCI - WIND CHILL INDEX
HX  - HEAT INDEX





USA.gov is the U.S. government's official web portal to all federal, state and local government web resources and services.